This demonstration page uses our WeatherBlox Daily Observations layout. Learn more.

Hourly Observations for September 12, 2015

Temp ( °F °C ) Dew Point ( °F °C ) Humidity (%) Winds ( mph kmh ) Pressure ( in mb ) Visibility ( mi km ) Precip ( " mm )
12:15 am 00:15 Partly Cloudy 55 12.5 49 9.3 81 81 SE 5 7 30.18 1022 10 16.0934 0 0
12:35 am 00:35 Partly Cloudy 55 12.5 49 9.4 82 82 Calm 30.18 1022 10 16.0934 0 0
12:55 am 00:55 Partly Cloudy 54 12.1 49 9.2 83 83 SSE 5 7 30.18 1022 10 16.0934 0 0
1:15 am 01:15 Partly Cloudy 51 10.7 47 8.6 87 87 SE 3 6 30.18 1022 10 16.0934 0 0
1:35 am 01:35 Clear 54 12 48 9.1 83 83 SSE 5 7 30.18 1022 10 16.0934 0 0
1:55 am 01:55 Partly Cloudy 53 11.6 48 9.1 85 85 SSE 5 7 30.18 1022 10 16.0934 0 0
2:15 am 02:15 Partly Cloudy 53 11.5 48 9 85 85 SSE 3 6 30.18 1022 10 16.0934 0 0
2:35 am 02:35 Partly Cloudy 53 11.5 48 9 85 85 SSE 5 7 30.18 1022 10 16.0934 0 0
2:55 am 02:55 Partly Cloudy 53 11.6 48 9 84 84 S 6 9 30.18 1022 10 16.0934 0 0
3:15 am 03:15 Clear 53 11.6 48 8.8 83 83 S 5 7 30.18 1022 10 16.0934 0 0
3:35 am 03:35 Clear 51 10.8 47 8.6 86 86 Calm 30.18 1022 10 16.0934 0 0
3:55 am 03:55 Partly Cloudy 51 10.6 47 8.5 87 87 SE 3 6 30.15 1021 10 16.0934 0 0
4:15 am 04:15 Mostly Cloudy 49 9.7 46 7.9 89 89 ESE 5 7 30.18 1022 10 16.0934 0 0
4:35 am 04:35 Mostly Cloudy 51 10.5 48 8.7 89 89 SE 3 6 30.15 1021 10 16.0934 0 0
4:55 am 04:55 Cloudy 52 11 49 9.2 89 89 SE 5 7 30.15 1021 10 16.0934 0 0
5:15 am 05:15 Cloudy 53 11.5 49 9.3 86 86 SE 5 7 30.15 1021 10 16.0934 0 0
5:35 am 05:35 Mostly Cloudy 52 11 48 9.1 88 88 Calm 30.15 1021 10 16.0934 0 0
5:55 am 05:55 Mostly Cloudy 52 11 49 9.3 89 89 SE 3 6 30.12 1020 10 16.0934 0 0
6:15 am 06:15 Cloudy 52 11 49 9.5 91 91 ESE 6 9 30.12 1020 10 16.0934 0 0
6:35 am 06:35 Mostly Cloudy 52 11.1 49 9.5 90 90 SE 7 11 30.12 1020 10 16.0934 0 0
6:55 am 06:55 Mostly Cloudy 52 11.1 49 9.6 91 91 ESE 6 9 30.12 1020 10 16.0934 0 0
7:15 am 07:15 Cloudy 53 11.5 50 9.8 89 89 ESE 6 9 30.12 1020 10 16.0934 0 0
7:35 am 07:35 Cloudy 53 11.6 50 9.8 89 89 SE 6 9 30.12 1020 10 16.0934 0 0
7:55 am 07:55 Mostly Cloudy 53 11.5 49 9.7 89 89 ESE 6 9 30.12 1020 10 16.0934 0 0
8:15 am 08:15 Mostly Cloudy 53 11.8 50 10 89 89 SSE 6 9 30.12 1020 10 16.0934 0 0
8:35 am 08:35 Cloudy 54 12.3 50 10.1 87 87 SSE 5 7 30.12 1020 10 16.0934 0 0
8:55 am 08:55 Mostly Cloudy 55 12.7 51 10.5 87 87 SE 5 7 30.12 1020 10 16.0934 0 0
9:15 am 09:15 Partly Cloudy 55 13 51 10.5 85 85 SE 8 13 30.12 1020 10 16.0934 0 0
9:35 am 09:35 Sunny 57 14 52 10.9 82 82 SSE 9 15 30.09 1019 10 16.0934 0 0
9:55 am 09:55 Partly Cloudy 59 15.2 51 10.8 75 75 SSE 12 19 30.09 1019 10 16.0934 0 0
10:15 am 10:15 Partly Cloudy 62 16.5 52 10.9 70 70 SSE 10 17 30.09 1019 10 16.0934 0 0
10:35 am 10:35 Partly Cloudy 64 17.5 52 11 66 66 SE 9 15 30.06 1018 10 16.0934 0 0
10:55 am 10:55 Partly Cloudy 65 18.1 51 10.4 61 61 SE 9 15 30.06 1018 10 16.0934 0 0
11:15 am 11:15 Sunny 66 19 51 10.4 58 58 SE 9 15 30.06 1018 10 16.0934 0 0
11:35 am 11:35 Partly Cloudy 68 20 51 10.6 55 55 SSE 8 13 30.06 1018 10 16.0934 0 0
11:55 am 11:55 Partly Cloudy 69 20.5 51 10.8 54 54 SE 8 13 30.03 1017 10 16.0934 0 0
12:15 pm 12:15 Sunny 70 21 52 10.9 53 53 SSE 9 15 30.03 1017 10 16.0934 0 0
12:35 pm 12:35 Sunny 71 21.7 51 10.8 50 50 S 9 15 30 1016 10 16.0934 0 0
12:55 pm 12:55 Sunny 72 22.3 51 10.7 48 48 S 8 13 30 1016 10 16.0934 0 0
1:15 pm 13:15 Sunny 73 22.7 52 11 48 48 SSE 8 13 30 1016 10 16.0934 0 0
1:35 pm 13:35 Sunny 73 22.7 51 10.8 47 47 S 6 9 30 1016 10 16.0934 0 0
1:55 pm 13:55 Sunny 73 23 51 10.8 46 46 SE 7 11 29.97 1015 10 16.0934 0 0
2:15 pm 14:15 Sunny 74 23.5 51 10.8 45 45 SSE 8 13 29.94 1014 10 16.0934 0 0
2:35 pm 14:35 Sunny 75 24 52 10.9 44 44 SSE 10 17 29.94 1014 10 16.0934 0 0
2:55 pm 14:55 Sunny 75 24.1 52 10.9 44 44 SSE 12 19 29.94 1014 10 16.0934 0 0
3:15 pm 15:15 Sunny 75 24.1 52 10.9 44 44 SSE 8 13 29.91 1013 10 16.0934 0 0
3:35 pm 15:35 Sunny 77 24.9 52 11.1 42 42 ESE 13 20 29.91 1013 10 16.0934 0 0
3:55 pm 15:55 Sunny 77 24.9 52 11 42 42 SSE 10 17 29.91 1013 10 16.0934 0 0
4:15 pm 16:15 Sunny 77 24.8 52 11.1 42 42 SSE 12 19 29.91 1013 10 16.0934 0 0
4:35 pm 16:35 Sunny 77 24.9 52 11.1 42 42 SE 12 19 29.91 1013 10 16.0934 0 0
4:55 pm 16:55 Sunny 77 24.8 52 11.2 43 43 S 6 9 29.88 1012 10 16.0934 0 0
5:15 pm 17:15 Sunny 77 24.9 52 11.3 43 43 SSE 8 13 29.88 1012 10 16.0934 0 0
5:35 pm 17:35 Sunny 77 25.1 52 11.2 42 42 SSE 8 13 29.88 1012 10 16.0934 0 0
5:55 pm 17:55 Sunny 77 25 53 11.4 43 43 SE 12 19 29.88 1012 10 16.0934 0 0
6:15 pm 18:15 Sunny 76 24.7 53 11.5 44 44 SE 12 19 29.88 1012 10 16.0934 0 0
6:35 pm 18:35 Sunny 76 24.3 52 10.9 43 43 ESE 15 24 29.88 1012 10 16.0934 0 0
6:55 pm 18:55 Sunny 74 23.4 51 10.8 45 45 ESE 13 20 29.91 1013 10 16.0934 0 0
7:15 pm 19:15 Sunny 73 22.6 51 10.8 47 47 ESE 10 17 29.91 1013 10 16.0934 0 0
7:35 pm 19:35 Sunny 71 21.5 51 10.8 51 51 ESE 12 19 29.91 1013 7 11.26538 0 0
7:55 pm 19:55 Clear 68 20.1 52 11 56 56 ESE 13 20 29.91 1013 10 16.0934 0 0
8:15 pm 20:15 Clear 67 19.2 52 11 59 59 ESE 13 20 29.94 1014 10 16.0934 0 0
8:35 pm 20:35 Clear 65 18.3 52 11 63 63 ESE 12 19 29.94 1014 10 16.0934 0 0
8:55 pm 20:55 Clear 64 17.6 52 11 65 65 ESE 10 17 29.94 1014 10 16.0934 0 0
9:15 pm 21:15 Clear 63 17.2 52 10.9 67 67 ESE 10 17 29.97 1015 10 16.0934 0 0
9:35 pm 21:35 Clear 62 16.4 52 11 71 71 ESE 10 17 30 1016 10 16.0934 0 0
9:55 pm 21:55 Clear 60 15.8 52 11 73 73 ESE 9 15 30 1016 10 16.0934 0 0
10:15 pm 22:15 Clear 60 15.3 52 11 76 76 ESE 9 15 30 1016 10 16.0934 0 0
10:35 pm 22:35 Clear 59 15 52 11.1 78 78 ESE 9 15 30 1016 10 16.0934 0 0
10:55 pm 22:55 Clear 58 14.6 52 11.3 81 81 ESE 10 17 30 1016 10 16.0934 0 0
11:15 pm 23:15 Clear 58 14.2 53 11.5 84 84 SE 9 15 30 1016 10 16.0934 0 0
11:35 pm 23:35 Clear 57 14.1 52 11.2 83 83 SE 10 17 30 1016 10 16.0934 0 0
11:55 pm 23:55 Clear 57 14 52 11.1 83 83 SE 10 17 30 1016 10 16.0934 0 0

Powered by AerisWeather